Home   Weather   Ciudad Juárez   Past weeks

Flag for Mexico Past Weather in Ciudad Juárez, Chihuahua, Mexico — Yesterday and Last 2 Weeks

Now
70 °F

Scattered clouds.


Feels Like: 70 °F
Forecast: 70 / 97 °F
Wind: No wind

Location: Ciudad Juarez International Airport

Current Time: Aug 17, 2017 at 7:51:03 am

Latest Report: Aug 17, 2017 at 6:47 am


Visibility: 10 mi

Pressure: 30.12 "Hg (26.41 "Hg at 1130m altitude)

Humidity: 57%

Dew Point: 54 °F

Location of Ciudad JuárezLocation

Past Weather in Ciudad Juárez — Graph

°F

Ciudad Juárez Temperature Yesterday

Maximum temperature yesterday: 91 °F (at 3:48 pm)
Minimum temperature yesterday: 72 °F (at 6:43 am)
Average temperature yesterday: 84 °F

High & Low Weather Summary for the Past Weeks

 TemperatureHumidityPressure
High95 °F (Aug 6, 3:41 pm)88% (Aug 12, 5:40 am)30.25 "Hg (Aug 12, 5:40 am)
Low68 °F (Aug 12, 5:40 am)20% (Aug 3, 7:53 pm)29.51 "Hg (Aug 14, 5:40 pm)
Average84 °F41%29.94 "Hg
* Reported Aug 2 6:52 am — Aug 17 6:47 am, Ciudad Juárez. Weather by CustomWeather, © 2017

Note: Actual official high and low records may vary slightly from our data, if they occured in-between our weather recording intervals... More about our weather records

Advertising

Ciudad Juárez Weather History for the Previous 24 Hours

Scroll right to see more
 ConditionsComfort  
Time TempWeatherWind HumidityBarometerVisibility
6:47 am
Thu, Aug 17
70 °FScattered clouds.No wind57%30.12 "Hg10 mi
5:47 am72 °FPassing clouds.No wind53%29.73 "Hg10 mi
9:40 pm
Wed, Aug 16
82 °FClear.No wind30%30.06 "Hg10 mi
8:41 pm86 °FPassing clouds.No wind29%29.67 "Hg10 mi
7:40 pm88 °FPassing clouds.7 mph21%30.02 "Hg10 mi
6:41 pm90 °FPassing clouds.9 mph21%30.01 "Hg10 mi
5:40 pm91 °FPassing clouds.9 mph20%29.63 "Hg10 mi
4:40 pm91 °FPassing clouds.9 mph21%30.03 "Hg10 mi
3:48 pm91 °FScattered clouds.8 mph20%30.04 "Hg10 mi
2:40 pm90 °FScattered clouds.No wind22%29.68 "Hg10 mi
1:40 pm88 °FPassing clouds.No wind27%30.08 "Hg10 mi
12:41 pm88 °FPassing clouds.8 mph27%30.09 "Hg10 mi
11:45 am84 °FPassing clouds.10 mph35%29.74 "Hg10 mi
10:40 am82 °FPassing clouds.13 mph40%30.11 "Hg10 mi
9:41 am81 °FScattered clouds.12 mph42%30.10 "Hg10 mi
8:50 am77 °FScattered clouds.14 mph47%29.73 "Hg10 mi
7:42 am73 °FScattered clouds.8 mph53%30.08 "Hg10 mi
Weather by CustomWeather, © 2017

See weather overviewHow to use our weather pages